Date String (YYYY-MM-DD hh:mm:ss) UTC,Instrument flags,Ambient pressure (hPa),Sample flow (lpm),Bypass flow (lpm),Sample temperature (°C),Ambient temperature (°C),ASC tube jacket temperature (°C),LED temperature (°C),Box temperature (°C),Sample RH (%),Span deviation,Mass concentration (μg/m³),Mass concentration (μg/m³),Mass concentration (μg/m³)
DateTimeUTC,F1_M11,P_M11,Q1_M11,Q2_M11,T1_M11,T2_M11,T3_M11,T4_M11,T5_M11,U1_M11,ZSPAN_M11,X0_M11,X2_M11,X1_M11
2021-10-28 17:00:00,,0831.7,5.01,0.00,21.8,21.3,00.0,30.7,23.6,14.8,0000.0,0009.32,0003.29,0002.59
2021-10-28 17:01:00,,0831.8,5.00,0.00,21.7,21.2,00.0,30.8,23.5,15.1,0000.0,0009.27,0003.31,0002.62
2021-10-28 17:02:00,,0831.8,5.00,0.00,21.7,21.2,00.0,30.8,23.5,15.0,0000.0,0009.22,0003.33,0002.65
2021-10-28 17:03:00,,0831.8,5.00,0.00,21.7,21.1,00.0,30.8,23.5,15.0,0000.0,0009.49,0003.36,0002.69
2021-10-28 17:04:00,,0831.8,5.00,0.00,21.7,21.2,00.0,30.8,23.5,15.0,0000.0,0009.75,0003.40,0002.75
2021-10-28 17:05:00,,0831.7,5.00,0.00,21.7,21.2,00.0,30.8,23.5,14.9,0000.0,0009.86,0003.45,0002.79
2021-10-28 17:06:00,,0831.7,5.00,0.00,21.7,21.2,00.0,30.8,23.5,15.2,0000.0,0010.06,0003.50,0002.83
2021-10-28 17:07:00,,0831.8,5.02,0.00,21.8,21.2,00.0,30.8,23.6,15.2,0000.0,0009.98,0003.50,0002.87
2021-10-28 17:08:00,,0831.9,4.98,0.00,21.8,21.3,00.0,30.8,23.6,15.2,0000.0,0009.00,0003.51,0002.89
2021-10-28 17:09:00,,0831.9,5.00,0.00,21.8,21.3,00.0,30.8,23.6,15.1,0000.0,0009.43,0003.54,0002.93
2021-10-28 17:10:00,,0831.9,4.99,0.00,21.8,21.4,00.0,30.8,23.7,15.2,0000.0,0009.56,0003.60,0002.97
2021-10-28 17:11:00,,0831.9,5.01,0.00,21.9,21.4,00.0,30.8,23.7,15.1,0000.0,0009.21,0003.60,0002.99
2021-10-28 17:12:00,,0831.9,5.00,0.00,21.9,21.4,00.0,30.8,23.7,15.0,0000.0,0009.42,0003.62,0003.02
2021-10-28 17:13:00,,0831.7,5.01,0.00,21.9,21.4,00.0,30.8,23.8,14.9,0000.0,0009.84,0003.63,0003.06
2021-10-28 17:14:00,,0831.8,5.00,0.00,21.9,21.4,00.0,30.8,23.7,15.1,0000.0,0009.67,0003.67,0003.09
2021-10-28 17:15:00,,0831.8,4.99,0.00,21.9,21.5,00.0,30.9,23.8,15.0,0000.0,0008.99,0003.69,0003.11
2021-10-28 17:16:00,,0831.9,5.01,0.00,21.9,21.4,00.0,30.9,23.7,14.9,0000.0,0008.94,0003.69,0003.14
2021-10-28 17:17:00,,0831.8,4.99,0.00,21.9,21.4,00.0,30.9,23.8,14.9,0000.0,0008.88,0003.72,0003.17
2021-10-28 17:18:00,,0831.8,4.99,0.00,21.9,21.5,00.0,30.9,23.8,15.0,0000.0,0008.90,0003.77,0003.19
2021-10-28 17:19:00,,0831.8,5.02,0.00,22.0,21.5,00.0,30.9,23.8,15.1,0000.0,0008.92,0003.84,0003.22
2021-10-28 17:20:00,,0831.8,5.00,0.00,22.0,21.6,00.0,30.9,23.9,15.1,0000.0,0008.54,0003.87,0003.23
2021-10-28 17:21:00,,0831.9,5.00,0.00,22.0,21.5,00.0,31.0,23.9,14.8,0000.0,0009.10,0003.90,0003.25
2021-10-28 17:22:00,,0831.9,5.01,0.00,22.0,21.5,00.0,31.0,23.9,14.9,0000.0,0009.10,0003.92,0003.26
2021-10-28 17:23:00,,0831.9,5.00,0.00,22.0,21.5,00.0,31.0,23.9,14.8,0000.0,0009.54,0003.92,0003.28
2021-10-28 17:24:00,,0832.0,5.00,0.00,22.0,21.6,00.0,31.0,23.9,14.8,0000.0,0009.65,0003.96,0003.30
2021-10-28 17:25:00,,0832.0,5.00,0.00,22.1,21.6,00.0,31.0,23.9,14.8,0000.0,0009.54,0003.96,0003.32
2021-10-28 17:26:00,,0832.0,5.00,0.00,22.1,21.6,00.0,31.0,24.0,14.9,0000.0,0010.03,0004.01,0003.35
2021-10-28 17:27:00,,0831.9,5.01,0.00,22.1,21.7,00.0,31.0,24.0,14.8,0000.0,0010.58,0004.03,0003.35
2021-10-28 17:28:00,,0832.0,4.99,0.00,22.1,21.7,00.0,31.1,24.1,14.7,0000.0,0010.95,0004.00,0003.36
2021-10-28 17:29:00,,0832.0,5.00,0.00,22.2,21.7,00.0,31.1,24.1,14.6,0000.0,0011.01,0003.99,0003.38
2021-10-28 17:30:00,,0832.0,5.00,0.00,22.2,21.7,00.0,31.1,24.1,14.7,0000.0,0011.07,0003.97,0003.39
2021-10-28 17:31:00,,0832.1,4.99,0.00,22.2,21.7,00.0,31.1,24.1,14.7,0000.0,0012.58,0004.02,0003.41
2021-10-28 17:32:00,,0832.0,5.01,0.00,22.2,21.7,00.0,31.1,24.1,14.6,0000.0,0012.82,0004.02,0003.44
2021-10-28 17:33:00,,0832.0,5.00,0.00,22.2,21.7,00.0,31.1,24.1,14.7,0000.0,0013.28,0004.06,0003.48
2021-10-28 17:34:00,,0831.9,4.99,0.00,22.2,21.7,00.0,31.1,24.1,14.9,0000.0,0012.58,0004.13,0003.51
2021-10-28 17:35:00,,0831.9,5.02,0.00,22.2,21.7,00.0,31.1,24.1,14.8,0000.0,0012.02,0004.15,0003.54
2021-10-28 17:36:00,,0831.9,4.99,0.00,22.2,21.8,00.0,31.2,24.1,14.7,0000.0,0012.10,0004.15,0003.56
2021-10-28 17:37:00,,0832.0,5.00,0.00,22.2,21.8,00.0,31.2,24.1,14.6,0000.0,0012.80,0004.16,0003.58
2021-10-28 17:38:00,,0831.9,5.00,0.00,22.3,21.8,00.0,31.2,24.2,14.7,0000.0,0012.45,0004.20,0003.61
2021-10-28 17:39:00,,0832.0,5.00,0.00,22.3,21.9,00.0,31.2,24.2,14.9,0000.0,0012.41,0004.25,0003.63
2021-10-28 17:40:00,,0832.0,5.01,0.00,22.3,21.9,00.0,31.2,24.2,14.8,0000.0,0013.32,0004.31,0003.67
2021-10-28 17:41:00,,0832.0,4.99,0.00,22.4,21.9,00.0,31.2,24.3,14.4,0000.0,0013.36,0004.33,0003.67
2021-10-28 17:42:00,,0831.9,5.00,0.00,22.4,22.0,00.0,31.3,24.3,14.3,0000.0,0011.84,0004.28,0003.64
2021-10-28 17:43:00,,0831.9,5.00,0.00,22.4,22.0,00.0,31.3,24.3,14.5,0000.0,0011.54,0004.26,0003.63
2021-10-28 17:44:00,,0831.9,5.01,0.00,22.4,22.0,00.0,31.3,24.4,14.6,0000.0,0011.13,0004.27,0003.63
2021-10-28 17:45:00,,0831.9,5.01,0.00,22.5,22.0,00.0,31.3,24.4,14.6,0000.0,0011.05,0004.26,0003.63
2021-10-28 17:46:00,,0832.0,4.99,0.00,22.5,22.1,00.0,31.3,24.4,14.5,0000.0,0011.25,0004.29,0003.63
2021-10-28 17:47:00,,0832.0,5.00,0.00,22.5,22.1,00.0,31.4,24.4,14.4,0000.0,0011.09,0004.30,0003.62
2021-10-28 17:48:00,,0832.0,4.99,0.00,22.5,22.1,00.0,31.4,24.4,14.4,0000.0,0010.25,0004.29,0003.63
2021-10-28 17:49:00,,0832.0,4.99,0.00,22.5,22.1,00.0,31.4,24.4,14.4,0000.0,0010.71,0004.30,0003.64
2021-10-28 17:50:00,,0831.8,5.00,0.00,22.6,22.2,00.0,31.4,24.5,14.4,0000.0,0010.48,0004.30,0003.65
2021-10-28 17:51:00,,0831.7,5.01,0.00,22.6,22.2,00.0,31.4,24.5,14.5,0000.0,0009.96,0004.29,0003.65
2021-10-28 17:52:00,,0831.7,5.00,0.00,22.6,22.2,00.0,31.5,24.5,14.6,0000.0,0010.08,0004.30,0003.68
2021-10-28 17:53:00,,0831.7,5.00,0.00,22.7,22.2,00.0,31.5,24.5,14.4,0000.0,0010.19,0004.34,0003.72
2021-10-28 17:54:00,,0831.7,5.00,0.00,22.7,22.2,00.0,31.5,24.5,14.4,0000.0,0010.31,0004.38,0003.74
2021-10-28 17:55:00,,0831.8,5.01,0.00,22.7,22.2,00.0,31.5,24.6,14.4,0000.0,0010.70,0004.36,0003.75
2021-10-28 17:56:00,,0831.9,4.99,0.00,22.7,22.2,00.0,31.6,24.6,14.3,0000.0,0010.99,0004.37,0003.77
2021-10-28 17:57:00,,0831.8,5.00,0.00,22.7,22.2,00.0,31.6,24.6,14.2,0000.0,0012.05,0004.37,0003.79
2021-10-28 17:58:00,,0831.8,5.01,0.00,22.7,22.3,00.0,31.6,24.6,14.3,0000.0,0012.23,0004.41,0003.81
2021-10-28 17:59:00,,0831.8,4.99,0.00,22.8,22.3,00.0,31.6,24.6,14.3,0000.0,0012.16,0004.40,0003.83
